Regional Weather Roundup
Issued by NWS

Home | Current Version | Previous Version | Graphics & Text | Print | Product List | Glossary On
Versions: 1 2 3 4 5 6 7 8 9 10 11 12 13 14 15 16 17 18 19 20 21 22 23 24 25 26 27 28 29 30 31 32 33 34 35 36 37 38 39 40 41 42 43 44 45 46 47 48 49 50
000
ASUS43 KMKX 261521
RWRWI

WISCONSIN REGIONAL WEATHER ROUNDUP
NATIONAL WEATHER SERVICE MILWAUKEE/SULLIVAN WI
1000 AM CDT SAT JUL 26 2014

NOTE: "FAIR" INDICATES FEW OR NO CLOUDS BELOW 12,000 FEET WITH NO
SIGNIFICANT WEATHER AND/OR OBSTRUCTIONS TO VISIBILITY.

WIZ001-002-006>008-014>016-023>028-261600-
NORTHWEST WISCONSIN

CITY           SKY/WX    TMP DP  RH WIND       PRES   REMARKS
SUPERIOR ARPT  SUNNY     76  60  56 NW9       29.79S
ASHLAND        SUNNY     76  60  57 VRB7      29.79S
HAYWARD        SUNNY     76  59  55 NW6       29.82F
SIREN          SUNNY     76  56  49 N3        29.81F
RICE LAKE      MOSUNNY   77  60  55 NW7       29.83F
LADYSMITH      MOSUNNY   78  64  62 W13       29.84S
EAU CLAIRE     PTSUNNY   77  70  79 W7        29.81F
MENOMONIE      MOSUNNY   79  68  69 W3        29.82F HX  81
NEW RICHMOND   MOSUNNY   77  61  59 N3        29.82S
OSCEOLA        SUNNY     77  61  57 N7        29.83S
$$

WIZ003>005-009-010-017-018-261600-
NORTH CENTRAL WISCONSIN

CITY           SKY/WX    TMP DP  RH WIND       PRES   REMARKS
WOODRUFF       CLOUDY    72  70  93 W7        29.81S
RHINELANDER    CLOUDY    72  67  84 W10       29.82F
EAGLE RIVER    CLOUDY    71  68  92 W10       29.80S
LAND O LAKES   PTSUNNY   73  66  78 W6        29.80S
PHILLIPS       PTSUNNY   74  67  80 W9        29.80F
TOMAHAWK       CLOUDY    70  66  87 W6        29.83F
MEDFORD        CLOUDY    67  67  98 W6        29.84S FOG
MERRILL        CLOUDY    70  68  93 W7        29.83S
$$

WIZ029-030-035-036-043>047-261600-
CENTRAL WISCONSIN

CITY           SKY/WX    TMP DP  RH WIND       PRES   REMARKS
WAUSAU         CLOUDY    70  66  87 W10       29.82S
MOSINEE        CLOUDY    68  68 100 SW8       29.85R FOG
MARSHFIELD     CLOUDY    70  67  90 SW8       29.84S FOG
STEVENS POINT  CLOUDY    68  64  88 W7        29.85R
WAUPACA        CLOUDY    75  67  76 W7        29.84R
WAUTOMA        CLOUDY    73  66  78 W8        29.85R
WISC RAPIDS    CLOUDY    71  66  84 SW10      29.86R
CAMP DOUGLAS   CLOUDY    72  70  94 NW7       29.85R
$$

WIZ011>013-019>022-031-037>040-048>050-261600-
NORTHEAST WISCONSIN

CITY           SKY/WX    TMP DP  RH WIND       PRES   REMARKS
ANTIGO         CLOUDY    69  66  91 W10       29.83S
STURGEON BAY   CLOUDY    70  64  83 SW9       29.80F
GREEN BAY      CLOUDY    71  66  84 SW8       29.81S
MANITOWOC      MOSUNNY   74  65  73 W5        29.82S
APPLETON       CLOUDY    70  64  83 W10       29.84R
CLINTONVILLE   CLOUDY    72  64  78 W7        29.82R
OSHKOSH        CLOUDY    72  64  76 W9        29.82F
$$

WIZ032>034-041-042-053>061-261600-
SOUTHWEST WISCONSIN

CITY           SKY/WX    TMP DP  RH WIND       PRES   REMARKS
LA CROSSE      CLOUDY    72  66  81 S7        29.83F
SPARTA         CLOUDY    69  65  85 CALM      29.83F
VIROQUA        CLOUDY    69  69 100 SW7       29.86F
BOSCOBEL       PTSUNNY   73  65  75 VRB3      29.84F
PRAIRIE DU CHI PTSUNNY   71  64  76 SE3       29.83F
PLATTEVILLE    PTSUNNY   72  66  83 NW5       29.89R
$$

WIZ056-057-062-063-064-067-068-261600-
SOUTH CENTRAL WISCONSIN

CITY           SKY/WX    TMP DP  RH WIND       PRES   REMARKS
BARABOO/DELLS  PTSUNNY   73  63  70 W6        29.87R
LONE ROCK      CLOUDY    75  65  70 W3        29.86R
WATERTOWN      CLOUDY    72  64  75 W6        29.84F
MADISON        CLOUDY    73  63  70 NW5       29.85F
MIDDLETON      CLOUDY    74  63  68 W6        29.87R
MONROE         CLOUDY    72  63  73 NW8       29.87R
JANESVILLE     MOSUNNY   75  63  64 NW6       29.84S
$$

WIZ051-052-058>065-066-070>072-261600-
SOUTHEAST WISCONSIN

CITY           SKY/WX    TMP DP  RH WIND       PRES   REMARKS
MILWAUKEE      PTSUNNY   73  61  65 SW5       29.84F
WAUKESHA       MOSUNNY   73  61  64 W6        29.85F
MILWAUKEE/TIMM CLOUDY    72  59  64 W5        29.84F
RACINE         CLOUDY    72  62  71 SE5       29.86F
BURLINGTON     MOSUNNY   72  63  74 CALM      29.83F
KENOSHA        CLOUDY    72  62  71 CALM      29.84F
FOND DU LAC    PTSUNNY   74  64  71 W8        29.84F
SHEBOYGAN      MOSUNNY   73  63  70 SW9       29.83F
WEST BEND      CLOUDY    72  59  64 W8        29.85S
JUNEAU         MOSUNNY   72  61  68 SW7       29.86F
$$

LSZ147-162-261600-
LAKE SUPERIOR

STATION/POSITION TIME  TEMP    WIND        PRES    WAVE
                       AIR SEA DIR/SP/G            HT/PER
                 (UTC) (F)     (DEG/KT/KT) (MB)    (FT/S)
W MID LAKE BUOY  1450   53 46  260/ 12/ 14 1006.7R   0
PORT WING        1440   71     250/ 11/ 15 1008.8S
SAXON HARBOR     1440          300/  9/ 12 1008.5R
$$

LMZ867-665-643>646-261600-
LAKE MICHIGAN

STATION/POSITION TIME  TEMP    WIND        PRES    WAVE
                       AIR SEA DIR/SP/G            HT/PER
                 (UTC) (F)     (DEG/KT/KT) (MB)    (FT/S)
N MID LAKE BUOY  1450   59 55  200/ 10/ 12 1008.5R   2/ 5
NORTHPORT PIER   1400   63     170/  7/ 12 1009.1R
KEWAUNEE LAKESHO 1500   54     160/  8/ 11 1010.4R
SHEBOYGAN LAKESH 1500   68     180/  9/ 11 1010.1F
PORT WASHINGTON  1440   65     180/  4/  5 1011.2F
ATWATER BUOY     1500   63     150/  6     1011.7S
MILWAUKEE LAKESH 1500   62     140/  8/  9   N/A
S MID LAKE BUOY  1450   64 61  150/  8/  8 1010.8F   1
KENOSHA   LAKESH 1500   65      80/  4/  4 1010.5S
$$

TC  - TEMPERATURE IN CELSIUS
VSB - VISIBILITY IN STATUTE MILES
WCI - WIND CHILL INDEX
HX  - HEAT INDEX




USA.gov is the U.S. government's official web portal to all federal, state and local government web resources and services.